CW8371 Weather Reports


time (UTC)temp
C
wind
direction
speed
KPH
gust
KPH
rain 1hr
cm
rain 24hr
cm
rain mn
cm
humidity
%
barometer
mb
20260507192524 16 276 12.9 33.8 0.00 0.36 0.03 35 1005.4
20260507192003 16 273 9.7 25.7 0.00 0.36 0.03 36 1005.5
20260507191504 16 270 11.3 27.4 0.00 0.36 0.03 37 1005.4
20260507191025 16 284 12.9 27.4 0.00 0.36 0.03 35 1005.6
20260507190504 16 295 12.9 32.2 0.00 0.38 0.03 36 1005.6
20260507190005 16 299 9.7 32.2 0.00 0.38 0.03 36 1005.7
20260507185525 16 303 8.0 22.5 0.00 0.41 0.03 36 1005.7
20260507185004 16 286 9.7 22.5 0.00 0.41 0.03 33 1005.8
20260507184504 16 280 11.3 24.1 0.00 0.41 0.03 34 1005.9
20260507184004 16 282 12.9 32.2 0.00 0.43 0.03 37 1006.0
20260507183525 16 280 9.7 32.2 0.00 0.43 0.03 32 1006.1
20260507183004 16 268 6.4 20.9 0.00 0.46 0.03 36 1006.2
20260507182504 16 275 9.7 25.7 0.00 0.46 0.03 35 1006.1
20260507182004 16 288 11.3 25.7 0.00 0.46 0.03 37 1006.3
20260507181504 16 285 11.3 24.1 0.00 0.46 0.03 37 1006.3
20260507181004 16 278 11.3 24.1 0.00 0.48 0.03 35 1006.3
20260507180504 16 292 11.3 24.1 0.00 0.48 0.03 36 1006.3
20260507180004 16 299 11.3 24.1 0.00 0.48 0.03 37 1006.4
20260507175525 16 305 9.7 20.9 0.00 0.48 0.03 37 1006.2
20260507175004 16 313 9.7 25.7 0.00 0.48 0.03 38 1006.2
20260507174525 16 310 11.3 25.7 0.00 0.48 0.03 37 1006.3
20260507174004 16 316 11.3 22.5 0.00 0.48 0.03 36 1006.1
20260507173525 16 311 12.9 29.0 0.00 0.48 0.03 35 1006.2
20260507173004 16 295 12.9 29.0 0.00 0.48 0.03 33 1006.1
20260507172504 16 279 12.9 25.7 0.00 0.48 0.03 39 1006.2
20260507172004 16 274 14.5 27.4 0.00 0.48 0.03 35 1006.1
20260507171525 16 282 12.9 27.4 0.00 0.48 0.03 36 1006.2
20260507171004 16 288 11.3 30.6 0.00 0.48 0.03 42 1006.2
20260507170504 16 302 9.7 30.6 0.00 0.48 0.03 37 1006.3
20260507170004 16 315 9.7 22.5 0.00 0.48 0.03 42 1006.2
20260507165504 16 302 9.7 22.5 0.00 0.48 0.03 41 1006.4
20260507165025 16 284 9.7 22.5 0.00 0.48 0.03 40 1006.5
20260507164525 16 276 4.8 19.3 0.00 0.48 0.03 41 1006.5
20260507164004 16 314 4.8 22.5 0.00 0.48 0.03 43 1006.6
20260507163504 15 300 9.7 29.0 0.00 0.48 0.03 42 1006.6
20260507163004 16 294 9.7 29.0 0.00 0.48 0.03 40 1006.7
20260507162504 15 296 9.7 22.5 0.00 0.48 0.03 40 1006.7
20260507162004 15 294 12.9 24.1 0.00 0.48 0.03 44 1006.8
20260507161504 15 286 11.3 24.1 0.00 0.48 0.03 43 1006.9
20260507161025 15 288 11.3 30.6 0.00 0.48 0.03 42 1006.9
20260507160525 15 280 14.5 41.8 0.00 0.48 0.03 43 1007.1
20260507160004 15 258 14.5 41.8 0.00 0.48 0.03 46 1007.1
20260507155504 15 276 16.1 32.2 0.00 0.48 0.03 47 1007.0
20260507155003 15 294 16.1 32.2 0.00 0.48 0.03 45 1007.1
20260507154504 15 284 14.5 30.6 0.00 0.48 0.03 46 1007.0
20260507154004 15 274 14.5 27.4 0.00 0.48 0.03 49 1007.0
20260507153504 14 274 14.5 29.0 0.00 0.48 0.03 46 1007.1
20260507153004 15 278 12.9 29.0 0.00 0.48 0.03 50 1007.3
20260507152525 14 280 11.3 27.4 0.00 0.48 0.03 53 1007.2
20260507152004 14 282 11.3 25.7 0.00 0.48 0.03 55 1007.4
20260507151504 14 279 9.7 25.7 0.00 0.48 0.03 60 1007.3
20260507151004 13 287 11.3 27.4 0.00 0.48 0.03 63 1007.3
20260507150504 13 293 9.7 27.4 0.00 0.48 0.03 57 1007.4
20260507150005 13 294 6.4 22.5 0.00 0.48 0.03 59 1007.4
20260507145504 14 276 6.4 22.5 0.00 0.48 0.03 63 1007.4
20260507145004 14 257 9.7 20.9 0.00 0.48 0.03 62 1007.4
20260507144525 14 267 11.3 20.9 0.00 0.48 0.03 58 1007.4
20260507144004 13 291 11.3 22.5 0.00 0.48 0.03 62 1007.5
20260507143525 13 288 9.7 22.5 0.00 0.48 0.03 60 1007.6
20260507143004 14 284 4.8 17.7 0.00 0.48 0.03 64 1007.4
20260507142504 14 283 8.0 19.3 0.00 0.48 0.03 63 1007.5
20260507142025 13 286 9.7 19.3 0.00 0.48 0.03 61 1007.5
20260507141504 13 286 8.0 19.3 0.00 0.48 0.03 65 1007.5
20260507141004 13 280 8.0 19.3 0.00 0.48 0.03 64 1007.3
20260507140504 13 282 4.8 19.3 0.00 0.48 0.03 63 1007.4
20260507140004 13 285 3.2 19.3 0.00 0.48 0.03 64 1007.4
20260507135504 13 274 4.8 17.7 0.00 0.48 0.03 67 1007.3
20260507135004 13 278 4.8 17.7 0.00 0.48 0.03 66 1007.3
20260507134504 13 287 3.2 14.5 0.00 0.48 0.03 67 1007.3
20260507134004 13 287 3.2 17.7 0.00 0.48 0.03 68 1007.3
20260507133504 13 288 1.6 17.7 0.00 0.48 0.03 67 1007.4
20260507133004 13 287 1.6 11.3 0.00 0.48 0.03 67 1007.5
20260507132525 13 286 1.6 11.3 0.00 0.48 0.03 66 1007.5
20260507132004 13 287 3.2 17.7 0.00 0.48 0.03 68 1007.6
20260507131504 12 288 4.8 17.7 0.00 0.48 0.03 68 1007.8
20260507131004 12 287 4.8 14.5 0.00 0.48 0.03 67 1007.9
20260507130504 12 284 3.2 14.5 0.00 0.48 0.03 69 1007.9
20260507130004 12 283 4.8 12.9 0.00 0.48 0.03 68 1007.8
20260507125504 12 280 4.8 17.7 0.00 0.48 0.03 70 1007.8
20260507125004 12 276 4.8 17.7 0.00 0.48 0.03 68 1007.9
20260507124504 12 277 8.0 17.7 0.00 0.48 0.03 73 1007.8
20260507124003 12 283 6.4 17.7 0.00 0.48 0.03 74 1007.8
20260507123503 12 282 3.2 14.5 0.00 0.48 0.03 74 1007.8
20260507123003 12 291 4.8 20.9 0.00 0.48 0.03 77 1007.9
20260507122503 11 292 4.8 20.9 0.00 0.48 0.03 75 1008.0
20260507122024 11 295 1.6 11.3 0.00 0.48 0.03 77 1008.1
20260507121524 11 297 0.0 8.0 0.03 0.48 0.03 78 1008.0
20260507121003 11 297 1.6 11.3 0.03 0.48 0.03 80 1008.0
20260507120503 11 297 1.6 11.3 0.03 0.48 0.03 79 1008.0
20260507120004 11 298 1.6 6.4 0.03 0.48 0.03 80 1008.1
20260507115503 10 298 0.0 6.4 0.03 0.48 0.03 81 1008.0
20260507115003 10 0 0.0 0.0 0.03 0.48 0.03 82 1007.9
20260507114503 10 0 0.0 0.0 0.03 0.48 0.03 82 1008.1
20260507114024 10 0 0.0 0.0 0.03 0.48 0.03 83 1008.0
20260507113503 10 0 0.0 0.0 0.03 0.48 0.03 83 1008.0
20260507113003 10 0 0.0 0.0 0.03 0.48 0.03 83 1007.9
20260507112503 10 0 0.0 0.0 0.03 0.48 0.03 83 1007.9
20260507112024 10 0 0.0 0.0 0.03 0.48 0.03 83 1007.9
20260507111504 10 0 0.0 0.0 0.00 0.46 0.00 84 1007.8
20260507111024 10 0 0.0 0.0 0.00 0.46 0.00 85 1007.9
20260507110503 10 0 0.0 0.0 0.00 0.46 0.00 83 1007.9
20260507110003 10 0 0.0 0.0 0.00 0.46 0.00 84 1007.9
20260507105503 10 0 0.0 0.0 0.00 0.46 0.00 83 1007.9
20260507105003 10 0 0.0 0.0 0.00 0.46 0.00 83 1007.6
20260507104504 10 0 0.0 0.0 0.00 0.46 0.00 83 1007.6
20260507104004 9 0 0.0 0.0 0.00 0.46 0.00 84 1007.5
20260507103524 9 0 0.0 0.0 0.00 0.46 0.00 84 1007.2
20260507103003 9 0 0.0 0.0 0.00 0.46 0.00 84 1007.2
20260507102503 9 0 0.0 0.0 0.00 0.46 0.00 85 1007.2
20260507102003 9 0 0.0 0.0 0.00 0.46 0.00 85 1007.2
20260507101503 9 0 0.0 0.0 0.00 0.46 0.00 85 1007.2
20260507101024 9 0 0.0 0.0 0.00 0.46 0.00 86 1007.1
20260507100503 9 0 0.0 0.0 0.00 0.46 0.00 86 1007.4
20260507100024 9 0 0.0 0.0 0.00 0.46 0.00 86 1007.1
20260507095503 9 0 0.0 0.0 0.00 0.46 0.00 86 1007.0
20260507095003 9 292 0.0 8.0 0.00 0.46 0.00 86 1007.2
20260507094503 9 292 0.0 8.0 0.00 0.46 0.00 87 1007.2
20260507094004 9 0 0.0 0.0 0.00 0.46 0.00 87 1007.5
20260507093503 9 0 0.0 0.0 0.00 0.46 0.00 87 1007.4
20260507093004 9 0 0.0 0.0 0.00 0.46 0.00 87 1007.4
20260507092503 9 0 0.0 0.0 0.00 0.46 0.00 87 1007.5
20260507092003 9 0 0.0 0.0 0.00 0.46 0.00 87 1007.4
20260507091503 9 0 0.0 0.0 0.00 0.46 0.00 87 1007.4
20260507091003 9 0 0.0 0.0 0.00 0.46 0.00 87 1007.4
20260507090503 9 292 0.0 3.2 0.00 0.46 0.00 88 1007.6
20260507090025 9 292 0.0 4.8 0.00 0.46 0.00 88 1007.6
20260507085503 9 292 1.6 14.5 0.00 0.46 0.00 88 1007.5
20260507085003 9 292 3.2 17.7 0.00 0.46 0.00 88 1007.1
20260507084503 9 292 1.6 17.7 0.00 0.46 0.00 88 1007.1
20260507084024 9 292 0.0 11.3 0.00 0.46 0.00 88 1007.7
20260507083503 9 292 1.6 11.3 0.00 0.46 0.00 88 1007.2
20260507083003 10 292 0.0 6.4 0.00 0.46 0.00 88 1007.1
20260507082524 10 292 0.0 6.4 0.00 0.46 0.00 88 1007.1
20260507082003 10 292 0.0 6.4 0.00 0.46 0.00 88 1007.0
20260507081503 10 292 0.0 6.4 0.00 0.46 0.00 87 1007.0
20260507081003 10 292 1.6 8.0 0.00 0.46 0.00 87 1007.1
20260507080503 10 292 1.6 8.0 0.00 0.46 0.00 86 1006.9
20260507080003 10 291 1.6 12.9 0.00 0.46 0.00 85 1006.9
20260507075503 10 290 1.6 12.9 0.00 0.46 0.00 84 1006.9
20260507075003 10 290 0.0 8.0 0.00 0.46 0.00 84 1007.0
20260507074503 11 290 0.0 8.0 0.00 0.46 0.00 83 1007.0
20260507074003 11 290 1.6 14.5 0.00 0.46 0.00 83 1007.2
20260507073503 11 291 3.2 17.7 0.00 0.46 0.00 84 1007.3
20260507073004 11 294 4.8 17.7 0.00 0.46 0.00 84 1007.1
20260507072503 11 295 3.2 12.9 0.00 0.46 0.00 85 1007.0
20260507072024 11 296 1.6 11.3 0.00 0.46 0.00 84 1007.0
20260507071524 11 296 3.2 11.3 0.00 0.46 0.00 86 1006.6
20260507071003 11 296 1.6 11.3 0.00 0.46 0.00 85 1006.6
20260507070503 11 0 0.0 0.0 0.00 0.46 0.00 86 1006.5
20260507070005 11 296 1.6 8.0 0.00 0.46 0.00 85 1006.4
20260507065503 11 296 1.6 14.5 0.00 0.46 0.00 86 1006.8
20260507065003 11 296 0.0 14.5 0.00 0.46 0.00 86 1006.8
20260507064503 11 296 0.0 8.0 0.00 0.46 0.00 86 1006.4
20260507064003 11 296 0.0 8.0 0.00 0.46 0.00 86 1006.3
20260507063503 11 296 0.0 8.0 0.00 0.46 0.00 87 1006.4
20260507063004 11 0 0.0 0.0 0.00 0.46 0.00 87 1006.5
20260507062503 11 0 0.0 0.0 0.00 0.46 0.00 86 1006.4
20260507062003 11 0 0.0 0.0 0.00 0.46 0.00 86 1006.2
20260507061524 11 0 0.0 0.0 0.00 0.46 0.00 86 1006.3
20260507061003 11 0 0.0 0.0 0.00 0.46 0.00 86 1006.3
20260507060503 11 0 0.0 0.0 0.00 0.46 0.00 85 1006.3
20260507060003 11 0 0.0 0.0 0.00 0.46 0.00 85 1006.5
20260507055503 11 296 0.0 6.4 0.00 0.46 0.00 85 1006.4
20260507055003 11 296 0.0 12.9 0.00 0.46 0.00 84 1006.6
20260507054503 11 296 0.0 12.9 0.00 0.46 0.00 85 1006.8
20260507054003 11 296 1.6 11.3 0.00 0.46 0.00 86 1006.9
20260507053524 11 296 3.2 11.3 0.00 0.46 0.00 85 1007.0
20260507053004 11 297 3.2 12.9 0.00 0.46 0.00 86 1006.9
20260507052503 12 297 1.6 12.9 0.00 0.46 0.00 86 1006.9
20260507052003 12 0 0.0 0.0 0.00 0.46 0.00 87 1007.0
20260507051503 12 298 1.6 11.3 0.00 0.46 0.00 86 1006.7
20260507051003 12 298 3.2 12.9 0.00 0.46 0.00 86 1006.8
20260507050503 12 298 1.6 12.9 0.00 0.46 0.00 86 1006.9
20260507050003 12 298 0.0 11.3 0.00 0.46 0.00 87 1006.9
20260507045503 12 298 1.6 12.9 0.00 0.46 0.00 86 1006.8
20260507045003 12 298 1.6 12.9 0.03 0.46 0.00 85 1006.7
20260507044503 12 299 0.0 4.8 0.03 0.46 0.00 85 1006.4
20260507044003 12 299 0.0 6.4 0.03 0.46 0.00 86 1006.4
20260507043503 12 299 3.2 16.1 0.03 0.46 0.00 86 1006.7
20260507043024 12 299 3.2 16.1 0.03 0.46 0.00 85 1006.7
20260507042503 12 297 3.2 12.9 0.03 0.46 0.00 86 1006.6
20260507042003 12 295 3.2 16.1 0.03 0.46 0.00 86 1006.5
20260507041503 13 290 3.2 16.1 0.03 0.46 0.00 86 1006.7
20260507041003 13 288 1.6 12.9 0.03 0.46 0.00 89 1006.6
20260507040503 13 0 0.0 0.0 0.03 0.46 0.00 92 1006.7
20260507040004 13 0 0.0 0.0 0.03 0.46 0.00 91 1006.7
20260507035524 13 283 0.0 9.7 0.03 0.46 0.46 90 1006.6
20260507035003 13 283 1.6 14.5 0.00 0.43 0.43 90 1006.5
20260507034503 13 283 1.6 14.5 0.00 0.43 0.43 89 1006.4
20260507034003 13 283 1.6 14.5 0.00 0.43 0.43 88 1006.2
20260507033503 14 284 4.8 14.5 0.00 0.43 0.43 88 1006.1
20260507033003 14 286 4.8 16.1 0.00 0.43 0.43 87 1006.0
20260507032503 14 287 6.4 16.1 0.00 0.43 0.43 87 1006.1
20260507032003 14 291 8.0 20.9 0.00 0.43 0.43 87 1006.0
20260507031503 14 299 8.0 20.9 0.00 0.43 0.43 86 1005.8
20260507031024 15 309 6.4 17.7 0.00 0.43 0.43 87 1005.7
20260507030503 15 302 6.4 22.5 0.00 0.43 0.43 90 1005.4
20260507030024 15 279 8.0 22.5 0.00 0.43 0.43 91 1005.5
20260507025524 15 239 4.8 22.5 0.00 0.43 0.43 95 1005.6
20260507025003 15 175 1.6 9.7 0.00 0.43 0.43 95 1005.5
20260507024524 15 173 0.0 3.2 0.00 0.43 0.43 95 1005.5
20260507024003 15 0 0.0 0.0 0.00 0.43 0.43 95 1005.3
20260507023503 15 173 0.0 1.6 0.00 0.43 0.43 95 1005.3
20260507023003 15 171 1.6 12.9 0.00 0.43 0.43 95 1005.3
20260507022524 15 170 1.6 12.9 0.00 0.43 0.43 95 1005.4
20260507022024 15 169 1.6 8.0 0.00 0.43 0.43 94 1005.4
20260507021503 15 169 1.6 8.0 0.00 0.43 0.43 94 1005.3
20260507021003 15 169 0.0 8.0 0.00 0.43 0.43 94 1005.1
20260507020503 15 169 0.0 8.0 0.00 0.43 0.43 94 1004.9
20260507020024 15 169 1.6 8.0 0.00 0.43 0.43 94 1005.0
20260507015503 15 169 4.8 11.3 0.00 0.43 0.43 94 1005.1
20260507015003 15 169 4.8 14.5 0.00 0.43 0.43 94 1005.2
20260507014503 15 169 6.4 14.5 0.00 0.43 0.43 94 1005.0
20260507014024 15 169 6.4 14.5 0.00 0.43 0.43 94 1005.1
20260507013503 15 169 6.4 14.5 0.00 0.43 0.43 94 1005.0
20260507013003 15 170 6.4 16.1 0.00 0.43 0.43 94 1005.0
20260507012503 15 170 6.4 16.1 0.00 0.43 0.43 95 1005.0
20260507012003 15 170 4.8 14.5 0.00 0.43 0.43 95 1005.2
20260507011524 15 169 4.8 14.5 0.00 0.43 0.43 95 1005.1
20260507011003 15 168 6.4 16.1 0.00 0.43 0.43 95 1005.1
20260507010504 15 167 6.4 16.1 0.00 0.43 0.43 95 1005.2
20260507010003 15 167 4.8 9.7 0.00 0.43 0.43 95 1005.2
20260507005504 15 167 6.4 17.7 0.00 0.43 0.43 95 1005.2
20260507005004 15 167 6.4 17.7 0.00 0.43 0.43 95 1005.2
20260507004503 15 170 6.4 17.7 0.00 0.43 0.43 95 1005.1
20260507004003 15 171 6.4 17.7 0.00 0.43 0.43 95 1005.0
20260507003524 15 171 6.4 19.3 0.00 0.43 0.43 95 1005.0
20260507003004 15 170 8.0 19.3 0.00 0.43 0.43 95 1005.0
20260507002503 15 170 8.0 17.7 0.00 0.43 0.43 95 1004.9
20260507002003 15 171 6.4 19.3 0.00 0.43 0.43 95 1004.8
20260507001524 15 170 6.4 19.3 0.00 0.43 0.43 95 1004.9
20260507001003 15 169 8.0 19.3 0.00 0.43 0.43 95 1004.9
20260507000504 15 167 8.0 19.3 0.03 0.43 0.43 95 1005.0
20260507000004 15 166 8.0 17.7 0.05 0.43 0.43 95 1005.0
20260506235503 15 166 8.0 16.1 0.05 0.43 0.43 95 1004.8
20260506235003 15 165 6.4 16.1 0.08 0.43 0.43 95 1004.8
20260506234503 15 166 8.0 22.5 0.08 0.43 0.43 95 1004.9
20260506234024 15 168 9.7 22.5 0.10 0.43 0.43 95 1004.7
20260506233503 15 168 9.7 19.3 0.10 0.43 0.43 95 1004.7
20260506233003 15 168 6.4 17.7 0.10 0.43 0.43 95 1004.7
20260506232503 15 168 4.8 16.1 0.13 0.43 0.43 95 1004.8
20260506232003 15 167 6.4 16.1 0.13 0.43 0.43 95 1004.8
20260506231503 15 166 6.4 16.1 0.13 0.43 0.43 95 1004.7
20260506231003 15 167 6.4 16.1 0.13 0.43 0.43 95 1004.8
20260506230503 15 168 6.4 17.7 0.10 0.41 0.41 94 1004.8
20260506230003 15 168 4.8 17.7 0.08 0.38 0.38 94 1004.9
20260506225503 15 167 3.2 16.1 0.08 0.38 0.38 94 1004.9
20260506225003 15 167 6.4 17.7 0.05 0.36 0.36 94 1005.0
20260506224503 15 166 8.0 17.7 0.08 0.36 0.36 94 1005.1
20260506224003 15 168 8.0 17.7 0.05 0.33 0.33 93 1005.1
20260506223503 16 171 8.0 19.3 0.05 0.33 0.33 93 1005.1
20260506223003 16 169 8.0 19.3 0.05 0.33 0.33 93 1005.0
20260506222524 16 166 8.0 17.7 0.05 0.30 0.30 93 1005.0
20260506222003 16 165 8.0 22.5 0.05 0.30 0.30 93 1005.1
20260506221504 16 165 8.0 22.5 0.05 0.30 0.30 93 1005.1
20260506221003 16 169 9.7 19.3 0.05 0.30 0.30 93 1005.1
20260506220503 16 170 9.7 19.3 0.05 0.30 0.30 93 1005.1
20260506220024 16 169 6.4 17.7 0.08 0.30 0.30 93 1005.1
20260506215524 16 169 8.0 24.1 0.08 0.30 0.30 93 1005.1
20260506215004 16 170 8.0 24.1 0.08 0.30 0.30 93 1005.1
20260506214503 16 171 6.4 22.5 0.08 0.28 0.28 93 1005.0
20260506214024 16 169 8.0 22.5 0.10 0.28 0.28 93 1005.1
20260506213503 16 167 8.0 19.3 0.10 0.28 0.28 92 1005.0
20260506213003 16 165 9.7 25.7 0.10 0.28 0.28 92 1005.1
20260506212503 16 164 8.0 25.7 0.10 0.25 0.25 92 1005.0
20260506212003 16 164 8.0 22.5 0.10 0.25 0.25 92 1005.2
20260506211503 16 167 9.7 27.4 0.10 0.25 0.25 92 1005.4
20260506211003 16 167 11.3 27.4 0.13 0.25 0.25 92 1005.4
20260506210503 16 165 11.3 27.4 0.13 0.25 0.25 92 1005.5
20260506210024 16 166 11.3 27.4 0.10 0.23 0.23 92 1005.5
20260506205503 16 172 9.7 27.4 0.10 0.23 0.23 92 1005.5
20260506205003 16 177 6.4 19.3 0.10 0.23 0.23 92 1005.7
20260506204524 16 170 8.0 25.7 0.08 0.20 0.20 91 1005.6
20260506204025 16 164 9.7 25.7 0.05 0.18 0.18 91 1005.9
20260506203503 16 164 8.0 24.1 0.05 0.18 0.18 91 1005.9
20260506203004 16 166 9.7 24.1 0.05 0.18 0.18 91 1005.9
20260506202504 17 169 9.7 24.1 0.03 0.15 0.15 90 1005.8
20260506202004 17 172 9.7 22.5 0.03 0.15 0.15 89 1005.8
20260506201524 17 181 9.7 22.5 0.03 0.15 0.15 89 1005.8
20260506201004 17 189 9.7 20.9 0.00 0.13 0.13 88 1005.9
20260506200504 17 184 8.0 20.9 0.03 0.13 0.13 87 1005.9
20260506200024 17 181 9.7 24.1 0.03 0.13 0.13 86 1005.9
20260506195503 17 183 9.7 24.1 0.05 0.13 0.13 86 1006.0
20260506195025 17 185 6.4 17.7 0.05 0.13 0.13 87 1005.9
20260506194503 17 183 6.4 16.1 0.05 0.13 0.13 87 1006.0
20260506194003 17 171 9.7 30.6 0.08 0.13 0.13 86 1005.9
20260506193503 17 168 11.3 30.6 0.08 0.13 0.13 86 1005.8
20260506193003 17 171 9.7 25.7 0.10 0.13 0.13 87 1005.8